Location: �couen
(49.0206°N, 2.3831°E)
Time: 22:28:08
(UTC+00:00)

Cosmos 1758 - Pass Details

Date: 30 May 2022
Orbit: 538 x 557 km, 82.5° (Epoch: 01 July)

Event Time Altitude Azimuth Distance (km) Brightness Sun altitude
Rises 23:33:03 0° 345° (NNW) 2,716 8.4 -19.0°
Reaches altitude 10° 23:35:15 10° 340° (NNW) 1,822 7.1 -19.0°
Maximum altitude 23:39:07 48° 266° (W) 727 3.8 -19.1°
Enters shadow 23:40:02 39° 225° (SW) 831 3.9 -19.1°
